Weather in Atlantic City

United States     39°21′34″N   74°26′02″W
temp.,
°C
wind,
m/s
gust,
m/s
humid.,
%
clouds,
%
prec.,
mm/h
press.,
hPa
HPBL,
m
18 may, tue
tue1823:00+16sw45692 0.0 102789
02:00+16sw45730 0.0 1027103
05:00+14wsw347613 0.0 1027117
08:00+15w45740 0.0 1029183
11:00+19ssw34620 0.0 1029137
14:00+18ssw78632 0.0 1028282
17:00+19ssw79642 0.0 1026268
20:00+17sw812680 0.0 1026170
19 may, wed
wed1923:00+17sw610720 0.0 1027145
02:00+16w510720 0.0 1027209
05:00+15w611760 0.0 1027256
08:00+16w58695 0.0 1028198
11:00+21w45600 0.0 102788
14:00+22wsw24589 0.0 1026199
17:00+23ese13605 0.0 1024118
20:00+21wnw22675 0.0 102511
20 may, thu
thu2023:00+19wnw5777100 0.0 102668
02:00+18n33809 0.0 102613
05:00+17e339035 0.1 102753
08:00+17ese568535 0.1 1029183
11:00+17e567769 0.0 1031216
14:00+16e5669100 0.0 1031285
17:00+16e5563100 0.0 1031316
20:00+16e456834 0.0 1031278
21 may, fri
fri2123:00+16ese45745 0.0 1031240
02:00+15e447393 0.0 1031273
05:00+15ene337381 0.0 1032271
08:00+15ne2271100 0.0 1033236
11:00+16ese3269100 0.0 1032191
14:00+15se4469100 0.0 1031149
17:00+17s4467100 0.0 1030198
20:00+17s4571100 0.0 1029157
22 may, sat
sat2223:00+17s4471100 0.0 1028140
02:00+16wsw3470100 0.0 1027104
05:00+16sw3473100 0.2 1025159
08:00+16sw3574100 0.6 1025200
11:00+16ssw6778100 0.2 1024256
14:00+17s6778100 0.2 1021230
17:00+17ssw7881100 0.0 1018180
20:00+17s6692100 3.2 1017106